Weather History for LFMV - January, 2013

Change the Weather History Date:

Wednesday, January 9, 2013

  Actual Average (LFTW) Record (LFTW)
Temperature  
Mean Temperature 35 °F -  
Max Temperature 46 °F 49 °F 66 °F (2007)
Min Temperature 24 °F 37 °F 30 °F (2003)
Degree Days  
Heating Degree Days 30    
Moisture  
Dew Point 30 °F    
Average Humidity 90    
Maximum Humidity 100    
Minimum Humidity 66    
Precipitation  
Precipitation 0.00 in - - ()
Sea Level Pressure  
Sea Level Pressure 30.18 in    
Wind  
Wind Speed 2 mph ()    
Max Wind Speed 7 mph    
Max Gust Speed -    
Visibility 3.9 miles    
Events Fog    
Averages and records for this station are not official NWS values.
T = Trace of Precipitation, MM = Missing Value Source: Averaged Metar Reports

Daily Weather History Graph

Daily Weather History Graph

Search for Another Location

Airport or City:

Trip Planner

Search our weather history database for the weather conditions in past years. The results will help you decide how hot, cold, wet, or windy it might be!

Date:

Astronomy

Jan. 09, 2013 Rise Set
Actual Time 8:13 AM CET 5:21 PM CET
Civil Twilight 7:41 AM CET 5:53 PM CET
Nautical Twilight 7:05 AM CET 6:29 PM CET
Astronomical Twilight 6:30 AM CET 7:04 PM CET
Moon 5:36 AM CET (1/9) 3:06 PM CET (1/9)
Length of Visible Light 10h 12m
Length of Day
9h 07m
Waning Crescent, 8% of the Moon is Illuminated
Jan 9
Waning Crescent
Jan 11
New
Jan 19
First Quarter
Jan 27
Full
Feb 3
Last Quarter

Hourly Weather History & Observations

Time (CET) Temp. Windchill Dew Point Humidity Pressure Visibility Wind Dir Wind Speed Gust Speed Precip Events Conditions
12:00 AM 28.4 °F - 28.4 °F 100% 30.24 in - ESE 1.2 mph - N/A   Mist
12:30 AM 26.6 °F - 26.6 °F 100% 30.24 in 3.1 mi ENE 2.3 mph - N/A   Mist
1:00 AM 28.4 °F 24.6 °F 28.4 °F 100% 30.24 in - NE 3.5 mph - N/A   Mist
1:30 AM 28.4 °F - 28.4 °F 100% 30.21 in 2.8 mi Calm Calm - N/A   Mist
2:00 AM 28.4 °F - 28.4 °F 100% 30.24 in - Calm Calm - N/A   Mist
2:30 AM 26.6 °F - 26.6 °F 100% 30.21 in - ENE 2.3 mph - N/A   Mist
3:00 AM 26.6 °F - 24.8 °F 93% 30.21 in - NE 2.3 mph - N/A   Mist
3:30 AM 28.4 °F - 28.4 °F 100% 30.21 in 3.1 mi East 2.3 mph - N/A   Mist
4:00 AM 26.6 °F - 24.8 °F 93% 30.21 in 1.6 mi Calm Calm - N/A   Mist
4:30 AM 26.6 °F - 26.6 °F 100% 30.21 in 0.6 mi South 2.3 mph - N/A   Mist
5:00 AM 26.6 °F - 26.6 °F 100% 30.21 in 2.5 mi East 2.3 mph - N/A   Mist
5:30 AM 24.8 °F - 24.8 °F 100% 30.21 in - Calm Calm - N/A   Partly Cloudy
6:00 AM 24.8 °F - 24.8 °F 100% 30.21 in - SSE 1.2 mph - N/A Fog Patches of Fog
6:30 AM 24.8 °F - 24.8 °F 100% 30.21 in - SSE 1.2 mph - N/A   Mostly Cloudy
7:30 AM 26.6 °F 22.6 °F 26.6 °F 100% 30.21 in 0.1 mi South 3.5 mph - N/A Fog Light Freezing Fog
8:00 AM 24.8 °F - 24.8 °F 100% 30.21 in 0.1 mi South 2.3 mph - N/A Fog Light Freezing Fog
8:30 AM 24.8 °F - 24.8 °F 100% 30.21 in 0.1 mi SSE 2.3 mph - N/A Fog Light Freezing Fog
9:00 AM 26.6 °F - 26.6 °F 100% 30.21 in 1.7 mi Calm Calm - N/A   Partly Cloudy
9:30 AM 28.4 °F - 28.4 °F 100% 30.24 in - Calm Calm - N/A   Mostly Cloudy
10:00 AM 32.0 °F - 32.0 °F 100% 30.24 in - Calm Calm - N/A   Partly Cloudy
10:30 AM 35.6 °F - 33.8 °F 93% 30.24 in 4.3 mi Variable 2.3 mph - N/A   Unknown
11:00 AM 35.6 °F 29.9 °F 32.0 °F 87% 30.24 in 3.1 mi North 6.9 mph - N/A   Mostly Cloudy
11:30 AM 37.4 °F 34.9 °F 33.8 °F 87% 30.24 in 3.1 mi North 3.5 mph - N/A   Overcast
12:00 PM 39.2 °F 35.9 °F 33.8 °F 81% 30.21 in 5.0 mi North 4.6 mph - N/A   Partly Cloudy
12:30 PM 41.0 °F 38.0 °F 33.8 °F 76% 30.21 in 4.3 mi North 4.6 mph - N/A   Unknown
1:30 PM 44.6 °F 43.1 °F 35.6 °F 71% 30.18 in 5.0 mi North 3.5 mph - N/A   Unknown
2:30 PM 46.4 °F - 35.6 °F 66% 30.15 in 5.6 mi Variable 2.3 mph - N/A   Unknown
3:00 PM 46.4 °F 44.3 °F 35.6 °F 66% 30.15 in 5.6 mi NNW 4.6 mph - N/A   Unknown
3:30 PM 46.4 °F 45.2 °F 35.6 °F 66% 30.12 in 5.6 mi Variable 3.5 mph - N/A   Unknown
4:30 PM 44.6 °F 42.2 °F 35.6 °F 71% 30.12 in 6.2 mi North 4.6 mph - N/A   Unknown
5:00 PM 42.8 °F 41.1 °F 33.8 °F 70% 30.12 in 6.2 mi North 3.5 mph - N/A   Unknown
5:30 PM 41.0 °F - 33.8 °F 76% 30.12 in 6.2 mi North 1.2 mph - N/A   Unknown
6:00 PM 37.4 °F - 32.0 °F 81% 30.12 in 5.6 mi Calm Calm - N/A   Unknown
6:30 PM 35.6 °F - 32.0 °F 87% 30.12 in 4.3 mi Calm Calm - N/A   Unknown
7:00 PM 35.6 °F 32.8 °F 32.0 °F 87% 30.12 in 3.7 mi North 3.5 mph - N/A   Unknown
7:30 PM 37.4 °F 33.8 °F 33.8 °F 87% 30.12 in 5.0 mi North 4.6 mph - N/A   Unknown
8:00 PM 35.6 °F 31.7 °F 32.0 °F 87% 30.12 in 5.6 mi North 4.6 mph - N/A   Partly Cloudy
8:30 PM 33.8 °F - 30.2 °F 87% 30.12 in 4.3 mi Calm Calm - N/A   Scattered Clouds
9:00 PM 35.6 °F 32.8 °F 33.8 °F 93% 30.12 in 5.0 mi NNW 3.5 mph - N/A   Overcast
9:30 PM 37.4 °F 34.9 °F 33.8 °F 87% 30.09 in 5.0 mi Variable 3.5 mph - N/A   Overcast
10:30 PM 37.4 °F 32.8 °F 33.8 °F 87% 30.09 in 5.6 mi North 5.8 mph - N/A   Overcast
11:00 PM 37.4 °F 33.8 °F 33.8 °F 87% 30.09 in 5.0 mi North 4.6 mph - N/A   Overcast
11:30 PM 37.4 °F 33.8 °F 33.8 °F 87% 30.09 in 5.0 mi NNE 4.6 mph - N/A   Overcast